Date,TemperatureHighF,TemperatureAvgF,TemperatureLowF,DewpointHighF,DewpointAvgF,DewpointLowF,HumidityHigh,HumidityAvg,HumidityLow,PressureMaxIn,PressureMinIn,WindSpeedMaxMPH,WindSpeedAvgMPH,GustSpeedMaxMPH,PrecipitationSumIn
2013-10-1,82.2,66.5,49.6,59.8,53.6,48.2,98,68,32,29.97,29.86,3,0,7,0.00
2013-10-2,84.7,71.8,57.6,60.7,57.6,54.3,93,64,37,29.99,29.89,4,1,8,0.00
2013-10-3,79.0,68.7,55.3,60.2,55.4,45.6,96,67,31,30.10,29.99,2,0,5,0.00
2013-10-4,86.1,71.5,60.1,69.6,62.8,58.2,96,77,40,30.05,29.94,4,0,6,0.00
2013-10-5,75.8,68.6,64.8,65.2,63.2,61.8,92,84,66,30.08,30.00,3,1,5,0.00
2013-10-6,67.6,66.5,65.6,67.0,65.1,63.6,98,95,88,30.08,30.00,4,1,6,0.00
2013-10-7,76.5,67.2,58.6,72.2,65.0,47.7,98,93,67,30.00,29.72,6,1,11,0.28
2013-10-8,68.1,58.0,49.8,48.8,44.7,37.3,90,64,34,30.31,29.96,6,2,10,0.10
2013-10-9,62.9,55.3,48.2,48.9,44.6,41.0,84,68,47,30.39,30.28,5,2,11,0.00
2013-10-10,61.5,57.5,52.2,52.8,50.4,45.8,85,77,72,30.28,30.07,7,3,11,0.00
2013-10-11,67.4,63.2,58.7,59.6,55.7,51.3,82,76,72,30.08,29.99,6,3,10,0.00
2013-10-12,73.9,64.3,57.8,57.4,47.3,25.7,78,57,17,30.27,30.06,8,3,18,0.00
2013-10-13,63.4,57.9,52.8,52.0,49.6,48.1,92,74,59,30.38,30.26,6,3,13,0.00
2013-10-14,67.3,57.5,50.1,52.8,48.7,40.9,96,75,39,30.35,30.21,3,1,5,0.00
2013-10-15,72.5,58.8,47.6,54.5,50.0,46.8,98,76,44,30.24,30.10,4,1,8,0.00
2013-10-16,67.9,59.6,50.8,59.6,54.6,49.1,96,84,66,30.10,29.90,3,0,4,0.00
2013-10-17,75.4,66.4,61.3,64.1,60.3,56.0,97,82,53,29.90,29.66,3,1,7,0.00
2013-10-18,68.9,62.2,52.9,63.1,45.7,37.6,93,57,33,29.96,29.65,5,2,8,0.01
2013-10-19,63.9,54.4,42.5,52.5,44.3,38.7,95,71,40,29.96,29.73,3,1,7,0.00
2013-10-20,63.9,55.0,46.2,52.3,38.9,28.1,89,59,27,30.04,29.73,4,1,10,0.00
2013-10-21,68.9,54.2,38.5,44.5,37.4,28.3,95,59,23,30.12,29.96,4,1,8,0.00
2013-10-22,65.0,54.7,43.3,51.8,44.7,38.1,97,70,52,29.96,29.72,3,1,8,0.00
2013-10-23,55.4,46.6,38.8,41.8,36.6,32.1,93,70,41,29.79,29.59,4,1,9,0.00
2013-10-24,54.1,46.2,38.3,35.8,29.0,20.6,84,54,29,29.98,29.73,5,2,17,0.00
2013-10-25,53.9,44.3,35.6,32.8,28.8,23.0,80,56,32,30.19,29.98,5,1,9,0.00
2013-10-26,55.4,45.2,32.8,37.4,29.4,22.3,94,59,28,30.19,29.86,8,2,11,0.00
2013-10-27,59.5,50.7,42.6,32.3,29.2,24.7,63,45,28,30.09,29.82,5,1,10,0.00
2013-10-28,61.8,48.1,32.9,35.9,31.0,26.9,93,57,28,30.28,30.09,6,1,14,0.00
2013-10-29,56.0,46.9,39.2,34.0,30.3,26.9,78,54,33,30.39,30.30,4,1,8,0.00
2013-10-30,58.3,48.6,38.6,48.4,40.9,32.9,92,76,58,30.33,30.15,1,0,3,0.00
2013-10-31,64.3,54.7,41.6,60.1,52.1,40.3,98,91,74,30.20,29.77,6,0,9,0.00